Location: Ellerstadt
(49.4644°N, 8.2615°E)
Time: 19:58:11
(UTC+00:00)

Vanguard 1 - Pass Details

Date: 21 June 2021
Orbit: 651 x 3832 km, 34.2° (Epoch: 27 July)

Event Time Altitude Azimuth Distance (km) Brightness Sun altitude
Rises 00:34:00 0° 269° (W) 7,665 14.4 -15.7°
Reaches altitude 10° 00:40:14 10° 263° (W) 6,294 13.9 -15.4°
Maximum altitude 00:55:40 35° 207° (SSW) 3,326 12.2 -14.6°
Drops below altitude 10° 01:05:08 10° 146° (SE) 3,870 12.8 -14.0°
Sets 01:07:58 0° 136° (SE) 4,505 13.2 -13.8°
